Skip Page Navigation
NASA JPL Caltech
NASA Logo - Jet Propulsion Laboratory + View the NASA Portal
+ Center for Near-Earth Object Studies
JPL Home Earth Solar System Stars & Galaxies Technology
JPL Solar System Dynamics
BODIES ORBITS EPHEMERIDES TOOLS PHYSICAL DATA DISCOVERY FAQ SITE MAP
IMPORTANT: The SSD Announcement email list is now available. Major changes are coming in the near future, including possible hostname and/or URL changes. To be notified of such changes, subscribe to this email list.

Please visit this page for more details.


JPL Small-Body Database Browser
Search: [ help ]  
35418 (1998 AP5)
Classification: Main-belt Asteroid          SPK-ID: 2035418
Ephemeris | Orbit Diagram | Orbital Elements | Mission Design | Physical Parameters | Discovery Circumstances ]

[ show orbit diagram ]
Orbital Elements at Epoch 2458600.5 (2019-Apr-27.0) TDB
Reference: JPL 20 (heliocentric ecliptic J2000)
 Element Value Uncertainty (1-sigma)   Units 
e .1227652278664611 4.3395e-08  
a 2.624209299455624 1.7686e-08 au
q 2.302047646838668 1.149e-07 au
i 14.18884732360444 5.1413e-06 deg
node 325.2565343295861 1.9762e-05 deg
peri 303.5160706605456 3.7257e-05 deg
M 249.7496266430899 3.6841e-05 deg
tp 2459076.025378826883
(2020-Aug-14.52537883)
0.00016066 TDB
period 1552.730672607271
4.25
1.5697e-05
4.298e-08
d
yr
n .2318496094338789 2.3439e-09 deg/d
Q 2.94637095207258 1.9858e-08 au
  Orbit Determination Parameters
   # obs. used (total)      1085  
   data-arc span      7805 days (21.37 yr)  
   first obs. used      1998-01-08  
   last obs. used      2019-05-23  
   planetary ephem.      DE431  
   SB-pert. ephem.      SB431-N16  
   condition code      0  
   norm. resid. RMS      .50685  
   source      ORB  
   producer      Otto Matic  
   solution date      2019-Jul-13 01:46:59  

Additional Information
 Earth MOID = 1.31727 au 
 Jupiter MOID = 2.3349 au 
 T_jup = 3.349 
[ show covariance matrix ]

Ephemeris | Orbit Diagram | Orbital Elements | Mission Design | Physical Parameters | Discovery Circumstances ]

Physical Parameter Table
Parameter Symbol Value Units Sigma Reference Notes
absolute magnitude H 14.1   n/a MPO436012  

35418 (1998 AP5)          Discovered 1998-Jan-08 by ODAS at Caussols
Reference: 20020227/Numbers.arcLast Updated: 2004-04-19

Alternate Designations
 1998 AP5 = 2000 SH319 
Ephemeris | Orbit Diagram | Orbital Elements | Mission Design | Physical Parameters | Discovery Circumstances ]
ABOUT SSD CREDITS/AWARDS PRIVACY/COPYRIGHT GLOSSARY LINKS
FirstGov 2019-Oct-14 07:19 UT
(server date/time)  
NASA Home Page
Site Manager:   Ryan S. Park
Webmaster  Alan B. Chamberlin